Regional Weather Roundup
Issued by NWS

Home | Current Version | Previous Version | Graphics & Text | Print | Product List | Glossary Off
Versions: 1 2 3 4 5 6 7 8 9 10 11 12 13 14 15 16 17 18 19 20 21 22 23 24 25 26 27 28 29 30 31 32 33 34 35 36 37 38 39 40 41 42 43 44 45 46 47 48 49 50

000
ASUS43 KFSD 220810
RWRSD

WEATHER ROUNDUP FOR SOUTH DAKOTA
NATIONAL WEATHER SERVICE SIOUX FALLS SD
300 AM CDT TUE MAY 22 2018

NOTE: "FAIR" INDICATES FEW OR NO CLOUDS BELOW 12,000 FEET WITH NO
SIGNIFICANT WEATHER AND/OR OBSTRUCTIONS TO VISIBILITY.


SDZ001>005-009-010-012>017-220900-
NORTHWEST AND NORTH CENTRAL SOUTH DAKOTA

CITY           SKY/WX    TMP DP  RH WIND       PRES   REMARKS
BUFFALO          N/A     56  47  71 NE5       29.86F
FAITH            N/A     57  49  74 SE14      29.90F
MOBRIDGE       CLEAR     56  51  84 E7        29.92R
$$

SDZ012>016-024>037-041>051-057-063-072>074-220900-
SOUTHWEST AND SOUTH CENTRAL SOUTH DAKOTA

CITY           SKY/WX    TMP DP  RH WIND       PRES   REMARKS
RAPID CTY ARPT CLOUDY    55  51  86 CALM      29.90F
PIERRE         CLEAR     55  52  89 E6        29.91F
CUSTER         MOCLDY    55  45  68 W5        30.01F
ELLSWORTH AFB  CLOUDY    60  54  80 CALM      29.89F
PHILIP         MOCLDY    54  53  97 E3        29.90F
PINE RIDGE     PTCLDY    54  53  97 NE3       29.93F
SPEARFISH      FAIR      55  46  71 W6        29.95F
WINNER         PTSUNNY   65  56  72 S10       29.92F
$$

SDZ004>011-016>023-039-040-220900-
NORTHEAST SOUTH DAKOTA

CITY           SKY/WX    TMP DP  RH WIND       PRES   REMARKS
ABERDEEN       CLEAR     50  50 100 SE6       29.96F FOG
WATERTOWN      FOG       52  52 100 S5        29.98S VSB 1/4
BROOKINGS      FOG       53  52  96 SE6       30.00S VSB 1/4
SISSETON         N/A     58  57  97 S5        29.97F
$$

SDZ017-020-022-023-036>040-048>070-220900-
SOUTHEAST SOUTH DAKOTA

CITY           SKY/WX    TMP DP  RH WIND       PRES   REMARKS
SIOUX FALLS    CLEAR     50  50 100 NE3       29.99S FOG
HURON          CLEAR     55  53  93 SE7       29.96S FOG
CHAMBERLAIN    PTCLDY    56  56 100 E7        29.94S
MITCHELL       CLEAR     55  53  93 SE6       29.96F FOG
YANKTON        CLOUDY    57  56  96 E6        29.97F FOG
$$

ABBREVIATIONS USED IN REMARKS
   TC - TEMPERATURE IN CELSIUS
  WCI - WIND CHILL INDEX
   HX - HEAT INDEX
  VSB - VISIBILITY




USA.gov is the U.S. government's official web portal to all federal, state and local government web resources and services.